Time,TemperatureF,DewpointF,PressureIn,WindDirection,WindDirectionDegrees,WindSpeedMPH,WindSpeedGustMPH,Humidity,HourlyPrecipIn,Conditions,Clouds,dailyrainin,SoftwareType,DateUTC
2013-06-07 00:03:00,55.0,48.0,29.90,NNE,16,0.0,4.0,78,0.00,,,0.19,,2013-06-07 05:03:00,
2013-06-07 00:12:00,55.0,48.0,29.90,NNE,16,0.0,4.0,78,0.00,,,0.19,,2013-06-07 05:12:00,
2013-06-07 00:22:00,55.0,49.0,29.91,ENE,62,0.0,3.0,79,0.00,,,0.16,,2013-06-07 05:22:00,
2013-06-07 00:32:00,55.0,49.0,29.91,NE,56,0.0,2.0,81,0.00,,,0.16,,2013-06-07 05:32:00,
2013-06-07 00:42:00,55.0,49.0,29.91,NE,56,0.0,2.0,81,0.00,,,0.16,,2013-06-07 05:42:00,
2013-06-07 00:52:00,55.0,51.0,29.91,North,355,0.0,2.0,85,0.00,,,0.16,,2013-06-07 05:52:00,
2013-06-07 01:02:00,54.0,49.0,29.90,NNE,13,2.0,4.0,84,0.00,,,0.16,,2013-06-07 06:02:00,
2013-06-07 01:12:00,54.0,49.0,29.90,NNE,13,2.0,4.0,84,0.00,,,0.16,,2013-06-07 06:12:00,
2013-06-07 01:22:00,54.0,49.0,29.90,NNW,329,1.0,4.0,83,0.00,,,0.11,,2013-06-07 06:22:00,
2013-06-07 01:32:00,54.0,49.0,29.90,NNE,32,1.0,3.0,84,0.00,,,0.11,,2013-06-07 06:32:00,
2013-06-07 01:42:00,54.0,49.0,29.90,NNE,32,1.0,3.0,84,0.00,,,0.11,,2013-06-07 06:42:00,
2013-06-07 01:52:00,54.0,49.0,29.89,NNE,30,2.0,7.0,82,0.00,,,0.11,,2013-06-07 06:52:00,
2013-06-07 02:02:00,54.0,48.0,29.89,North,9,2.0,6.0,81,0.00,,,0.11,,2013-06-07 07:02:00,
2013-06-07 02:12:00,54.0,48.0,29.89,North,9,2.0,6.0,81,0.00,,,0.11,,2013-06-07 07:12:00,
2013-06-07 02:22:00,54.0,48.0,29.89,WNW,298,1.0,5.0,81,0.00,,,0.10,,2013-06-07 07:22:00,
2013-06-07 02:32:00,54.0,48.0,29.89,NNE,17,1.0,5.0,81,0.00,,,0.10,,2013-06-07 07:32:00,
2013-06-07 02:42:00,54.0,48.0,29.89,NNE,17,1.0,5.0,81,0.00,,,0.10,,2013-06-07 07:42:00,
2013-06-07 02:52:00,54.0,48.0,29.90,North,355,2.0,5.0,80,0.00,,,0.10,,2013-06-07 07:52:00,
2013-06-07 03:02:00,54.0,48.0,29.89,North,360,2.0,4.0,80,0.00,,,0.10,,2013-06-07 08:02:00,
2013-06-07 03:12:00,54.0,48.0,29.89,North,360,2.0,4.0,80,0.00,,,0.10,,2013-06-07 08:12:00,
2013-06-07 03:22:00,54.0,48.0,29.89,North,360,0.0,3.0,80,0.00,,,0.08,,2013-06-07 08:22:00,
2013-06-07 03:32:00,54.0,48.0,29.89,North,360,0.0,4.0,81,0.00,,,0.08,,2013-06-07 08:32:00,
2013-06-07 03:42:00,54.0,48.0,29.89,North,360,0.0,4.0,81,0.00,,,0.08,,2013-06-07 08:42:00,
2013-06-07 03:52:00,54.0,49.0,29.89,NNW,348,0.0,3.0,82,0.00,,,0.08,,2013-06-07 08:52:00,
2013-06-07 04:02:00,54.0,49.0,29.89,North,360,0.0,5.0,82,0.00,,,0.08,,2013-06-07 09:02:00,
2013-06-07 04:12:00,54.0,49.0,29.89,North,360,0.0,5.0,82,0.00,,,0.08,,2013-06-07 09:12:00,
2013-06-07 04:22:00,53.0,48.0,29.89,NNW,344,0.0,3.0,83,0.00,,,0.05,,2013-06-07 09:22:00,
2013-06-07 04:32:00,53.0,48.0,29.89,North,360,1.0,4.0,84,0.00,,,0.05,,2013-06-07 09:32:00,
2013-06-07 04:43:00,53.0,48.0,29.89,North,360,1.0,4.0,84,0.00,,,0.05,,2013-06-07 09:43:00,
2013-06-07 04:53:00,53.0,49.0,29.89,NNE,18,1.0,3.0,85,0.00,,,0.05,,2013-06-07 09:53:00,
2013-06-07 05:02:00,53.0,49.0,29.90,North,355,0.0,3.0,85,0.00,,,0.05,,2013-06-07 10:02:00,
2013-06-07 05:12:00,53.0,49.0,29.90,North,355,0.0,3.0,85,0.00,,,0.05,,2013-06-07 10:12:00,
2013-06-07 05:23:00,53.0,49.0,29.90,NNE,33,0.0,2.0,85,0.00,,,0.05,,2013-06-07 10:23:00,
2013-06-07 05:32:00,53.0,49.0,29.91,NNW,348,1.0,4.0,85,0.00,,,0.05,,2013-06-07 10:32:00,
2013-06-07 05:42:00,53.0,49.0,29.91,NNW,348,1.0,4.0,85,0.00,,,0.05,,2013-06-07 10:42:00,
2013-06-07 05:53:00,53.0,49.0,29.91,North,5,0.0,3.0,86,0.00,,,0.05,,2013-06-07 10:53:00,
2013-06-07 06:02:00,53.0,49.0,29.91,NNE,32,2.0,4.0,85,0.00,,,0.05,,2013-06-07 11:02:00,
2013-06-07 06:12:00,53.0,49.0,29.91,NNE,32,2.0,4.0,85,0.00,,,0.05,,2013-06-07 11:12:00,
2013-06-07 06:22:00,53.0,48.0,29.91,North,5,1.0,4.0,84,0.00,,,0.05,,2013-06-07 11:22:00,
2013-06-07 06:32:00,53.0,48.0,29.91,NNE,13,0.0,3.0,84,0.00,,,0.05,,2013-06-07 11:32:00,
2013-06-07 06:42:00,53.0,48.0,29.91,NNE,13,0.0,3.0,84,0.00,,,0.05,,2013-06-07 11:42:00,
2013-06-07 06:52:00,53.0,48.0,29.91,North,10,0.0,4.0,83,0.00,,,0.05,,2013-06-07 11:52:00,
2013-06-07 07:02:00,53.0,48.0,29.91,NNE,19,1.0,5.0,84,0.00,,,0.05,,2013-06-07 12:02:00,
2013-06-07 07:12:00,53.0,48.0,29.91,NNE,19,1.0,5.0,84,0.00,,,0.05,,2013-06-07 12:12:00,
2013-06-07 07:22:00,54.0,49.0,29.91,North,360,1.0,7.0,82,0.00,,,0.05,,2013-06-07 12:22:00,
2013-06-07 07:32:00,54.0,48.0,29.91,North,355,2.0,7.0,81,0.00,,,0.05,,2013-06-07 12:32:00,
2013-06-07 07:42:00,54.0,48.0,29.91,North,355,2.0,7.0,81,0.00,,,0.05,,2013-06-07 12:42:00,
2013-06-07 07:52:00,55.0,50.0,29.92,NNE,19,1.0,6.0,82,0.00,,,0.05,,2013-06-07 12:52:00,
2013-06-07 08:02:00,55.0,50.0,29.92,North,5,1.0,5.0,82,0.00,,,0.05,,2013-06-07 13:02:00,
2013-06-07 08:12:00,55.0,50.0,29.92,North,5,1.0,5.0,82,0.00,,,0.05,,2013-06-07 13:12:00,
2013-06-07 08:22:00,56.0,50.0,29.92,North,360,3.0,7.0,81,0.00,,,0.05,,2013-06-07 13:22:00,
2013-06-07 08:32:00,58.0,51.0,29.92,NNE,22,3.0,8.0,78,0.00,,,0.05,,2013-06-07 13:32:00,
2013-06-07 08:42:00,58.0,51.0,29.92,NNE,22,3.0,8.0,78,0.00,,,0.05,,2013-06-07 13:42:00,
2013-06-07 08:52:00,59.0,52.0,29.93,NNE,17,2.0,7.0,77,0.00,,,0.05,,2013-06-07 13:52:00,
2013-06-07 09:02:00,60.0,52.0,29.93,North,349,3.0,10.0,74,0.00,,,0.05,,2013-06-07 14:02:00,
2013-06-07 09:12:00,60.0,52.0,29.93,North,349,3.0,10.0,74,0.00,,,0.05,,2013-06-07 14:12:00,
2013-06-07 09:22:00,59.0,51.0,29.93,NNW,345,3.0,9.0,76,0.00,,,0.03,,2013-06-07 14:22:00,
2013-06-07 09:32:00,59.0,52.0,29.93,North,9,2.0,8.0,78,0.00,,,0.03,,2013-06-07 14:32:00,
2013-06-07 09:42:00,59.0,52.0,29.93,North,9,2.0,8.0,78,0.00,,,0.03,,2013-06-07 14:42:00,
2013-06-07 09:52:00,59.0,52.0,29.93,NNW,328,2.0,6.0,77,0.00,,,0.03,,2013-06-07 14:52:00,
2013-06-07 10:02:00,62.0,54.0,29.93,North,360,4.0,10.0,75,0.00,,,0.03,,2013-06-07 15:02:00,
2013-06-07 10:12:00,62.0,54.0,29.93,North,360,4.0,10.0,75,0.00,,,0.03,,2013-06-07 15:12:00,
2013-06-07 10:22:00,63.0,54.0,29.93,NE,38,4.0,8.0,72,0.00,,,0.01,,2013-06-07 15:22:00,
2013-06-07 10:33:00,63.0,53.0,29.93,NNE,17,4.0,9.0,70,0.00,,,0.01,,2013-06-07 15:33:00,
2013-06-07 10:43:00,63.0,53.0,29.93,NNE,17,4.0,9.0,70,0.00,,,0.01,,2013-06-07 15:43:00,
2013-06-07 10:53:00,64.0,55.0,29.93,NNW,344,2.0,8.0,73,0.00,,,0.01,,2013-06-07 15:53:00,
2013-06-07 11:03:00,63.0,53.0,29.93,WSW,238,3.0,10.0,70,0.00,,,0.01,,2013-06-07 16:03:00,
2013-06-07 11:13:00,63.0,53.0,29.93,WSW,238,3.0,10.0,70,0.00,,,0.01,,2013-06-07 16:13:00,
2013-06-07 11:22:00,64.0,54.0,29.93,NNW,348,4.0,11.0,71,0.00,,,0.00,,2013-06-07 16:22:00,
2013-06-07 11:33:00,64.0,54.0,29.93,North,5,3.0,10.0,71,0.00,,,0.00,,2013-06-07 16:33:00,
2013-06-07 11:43:00,64.0,54.0,29.93,North,5,3.0,10.0,71,0.00,,,0.00,,2013-06-07 16:43:00,
2013-06-07 11:53:00,65.0,53.0,29.92,NNW,333,3.0,9.0,65,0.00,,,0.00,,2013-06-07 16:53:00,
2013-06-07 12:02:00,66.0,54.0,29.92,NNW,343,3.0,9.0,65,0.00,,,0.00,,2013-06-07 17:02:00,
2013-06-07 12:12:00,66.0,54.0,29.92,NNW,343,3.0,9.0,65,0.00,,,0.00,,2013-06-07 17:12:00,
2013-06-07 12:23:00,67.0,55.0,29.92,North,355,3.0,8.0,65,0.00,,,0.00,,2013-06-07 17:23:00,
2013-06-07 12:32:00,68.0,55.0,29.92,ENE,73,1.0,7.0,64,0.00,,,0.00,,2013-06-07 17:32:00,
2013-06-07 12:42:00,68.0,55.0,29.92,ENE,73,1.0,7.0,64,0.00,,,0.00,,2013-06-07 17:42:00,
2013-06-07 12:52:00,68.0,54.0,29.91,NNW,341,2.0,8.0,60,0.00,,,0.00,,2013-06-07 17:52:00,
2013-06-07 13:05:00,68.0,54.0,29.91,NNE,18,2.0,10.0,62,0.00,,,0.00,,2013-06-07 18:05:00,
2013-06-07 13:23:00,69.0,53.0,29.91,ESE,106,3.0,8.0,57,0.00,,,0.00,,2013-06-07 18:23:00,
2013-06-07 13:35:00,70.0,53.0,29.91,North,5,3.0,10.0,54,0.00,,,0.00,,2013-06-07 18:35:00,
2013-06-07 13:44:00,70.0,53.0,29.91,North,5,3.0,10.0,54,0.00,,,0.00,,2013-06-07 18:44:00,
2013-06-07 13:55:00,70.0,53.0,29.91,North,5,3.0,10.0,54,0.00,,,0.00,,2013-06-07 18:55:00,
2013-06-07 14:05:00,70.0,52.0,29.90,North,349,2.0,8.0,53,0.00,,,0.00,,2013-06-07 19:05:00,
2013-06-07 14:14:00,70.0,52.0,29.90,North,349,2.0,8.0,53,0.00,,,0.00,,2013-06-07 19:14:00,
2013-06-07 14:35:00,70.0,53.0,29.90,NNE,22,4.0,9.0,55,0.00,,,0.00,,2013-06-07 19:35:00,
2013-06-07 14:47:00,70.0,53.0,29.90,NNE,22,4.0,9.0,55,0.00,,,0.00,,2013-06-07 19:47:00,
2013-06-07 14:55:00,70.0,53.0,29.90,West,278,2.0,8.0,54,0.00,,,0.00,,2013-06-07 19:55:00,
2013-06-07 15:07:00,70.0,53.0,29.89,East,88,2.0,11.0,55,0.00,,,0.00,,2013-06-07 20:07:00,
2013-06-07 15:16:00,70.0,53.0,29.89,East,88,2.0,11.0,55,0.00,,,0.00,,2013-06-07 20:16:00,
2013-06-07 15:38:00,71.0,50.0,29.89,NNE,31,4.0,7.0,48,0.00,,,0.00,,2013-06-07 20:38:00,
2013-06-07 15:55:00,71.0,51.0,29.89,NNE,26,2.0,8.0,49,0.00,,,0.00,,2013-06-07 20:55:00,
2013-06-07 16:05:00,72.0,49.0,29.89,NNE,15,4.0,8.0,45,0.00,,,0.00,,2013-06-07 21:05:00,
2013-06-07 16:18:00,72.0,49.0,29.89,NNE,15,4.0,8.0,45,0.00,,,0.00,,2013-06-07 21:18:00,
2013-06-07 16:27:00,72.0,50.0,29.88,ENE,61,0.0,9.0,46,0.00,,,0.00,,2013-06-07 21:27:00,
2013-06-07 16:38:00,73.0,50.0,29.88,NNE,22,1.0,8.0,45,0.00,,,0.00,,2013-06-07 21:38:00,
2013-06-07 16:45:00,73.0,50.0,29.88,NNE,22,1.0,8.0,45,0.00,,,0.00,,2013-06-07 21:45:00,
2013-06-07 16:55:00,72.0,50.0,29.88,NW,317,2.0,11.0,46,0.00,,,0.00,,2013-06-07 21:55:00,
2013-06-07 17:07:00,72.0,48.0,29.89,North,9,3.0,7.0,43,0.00,,,0.00,,2013-06-07 22:07:00,
2013-06-07 17:27:00,72.0,48.0,29.88,ENE,78,2.0,9.0,42,0.00,,,0.00,,2013-06-07 22:27:00,
2013-06-07 17:37:00,72.0,48.0,29.88,NNE,31,2.0,7.0,42,0.00,,,0.00,,2013-06-07 22:37:00,
2013-06-07 17:46:00,72.0,48.0,29.88,NNE,31,2.0,7.0,42,0.00,,,0.00,,2013-06-07 22:46:00,
2013-06-07 17:55:00,72.0,46.0,29.88,East,98,3.0,8.0,40,0.00,,,0.00,,2013-06-07 22:55:00,
2013-06-07 18:07:00,72.0,46.0,29.88,ENE,62,1.0,7.0,40,0.00,,,0.00,,2013-06-07 23:07:00,
2013-06-07 18:18:00,72.0,46.0,29.88,ENE,62,1.0,7.0,40,0.00,,,0.00,,2013-06-07 23:18:00,
2013-06-07 18:36:00,70.0,47.0,29.89,East,79,1.0,8.0,44,0.00,,,0.00,,2013-06-07 23:36:00,
2013-06-07 18:49:00,70.0,47.0,29.89,East,79,1.0,8.0,44,0.00,,,0.00,,2013-06-07 23:49:00,
2013-06-07 18:56:00,70.0,46.0,29.89,ESE,123,2.0,7.0,42,0.00,,,0.00,,2013-06-07 23:56:00,
2013-06-07 19:17:00,70.0,46.0,29.89,North,360,1.0,8.0,42,0.00,,,0.00,,2013-06-08 00:17:00,
2013-06-07 19:34:00,68.0,46.0,29.89,ESE,110,2.0,6.0,45,0.00,,,0.00,,2013-06-08 00:34:00,
2013-06-07 19:54:00,67.0,46.0,29.89,SE,136,0.0,3.0,46,0.00,,,0.00,,2013-06-08 00:54:00,
2013-06-07 20:18:00,67.0,46.0,29.89,East,94,0.0,5.0,47,0.00,,,0.00,,2013-06-08 01:18:00,
2013-06-07 20:27:00,66.0,45.0,29.90,East,82,0.0,3.0,47,0.00,,,0.00,,2013-06-08 01:27:00,
2013-06-07 20:38:00,66.0,46.0,29.90,NE,54,0.0,2.0,48,0.00,,,0.00,,2013-06-08 01:38:00,
2013-06-07 20:56:00,65.0,45.0,29.90,NE,43,0.0,2.0,49,0.00,,,0.00,,2013-06-08 01:56:00,
2013-06-07 21:08:00,64.0,45.0,29.90,NE,43,0.0,0.0,51,0.00,,,0.00,,2013-06-08 02:08:00,
2013-06-07 21:15:00,64.0,45.0,29.90,NE,43,0.0,0.0,51,0.00,,,0.00,,2013-06-08 02:15:00,
2013-06-07 21:29:00,63.0,47.0,29.91,NE,43,0.0,1.0,55,0.00,,,0.00,,2013-06-08 02:29:00,
2013-06-07 21:34:00,62.0,47.0,29.91,NE,43,0.0,1.0,57,0.00,,,0.00,,2013-06-08 02:34:00,
2013-06-07 21:47:00,62.0,47.0,29.91,NE,43,0.0,1.0,57,0.00,,,0.00,,2013-06-08 02:47:00,
2013-06-07 21:54:00,61.0,47.0,29.91,NE,43,0.0,0.0,60,0.00,,,0.00,,2013-06-08 02:54:00,
2013-06-07 22:08:00,60.0,46.0,29.92,SW,234,0.0,5.0,60,0.00,,,0.00,,2013-06-08 03:08:00,
2013-06-07 22:16:00,60.0,46.0,29.92,SW,234,0.0,5.0,60,0.00,,,0.00,,2013-06-08 03:16:00,
2013-06-07 22:26:00,59.0,46.0,29.92,SW,232,0.0,1.0,62,0.00,,,0.00,,2013-06-08 03:26:00,
2013-06-07 22:36:00,59.0,47.0,29.92,SW,232,0.0,1.0,64,0.00,,,0.00,,2013-06-08 03:36:00,
2013-06-07 22:51:00,59.0,47.0,29.92,SW,232,0.0,1.0,64,0.00,,,0.00,,2013-06-08 03:51:00,
2013-06-07 23:03:00,58.0,47.0,29.92,SSE,154,0.0,2.0,66,0.00,,,0.00,,2013-06-08 04:03:00,
2013-06-07 23:12:00,58.0,47.0,29.92,SSE,154,0.0,2.0,66,0.00,,,0.00,,2013-06-08 04:12:00,
2013-06-07 23:23:00,58.0,47.0,29.92,SSE,154,0.0,1.0,66,0.00,,,0.00,,2013-06-08 04:23:00,
2013-06-07 23:33:00,57.0,46.0,29.91,SSE,167,0.0,2.0,67,0.00,,,0.00,,2013-06-08 04:33:00,
2013-06-07 23:42:00,57.0,46.0,29.91,SSE,167,0.0,2.0,67,0.00,,,0.00,,2013-06-08 04:42:00,
2013-06-07 23:53:00,57.0,46.0,29.91,SSE,167,0.0,0.0,67,0.00,,,0.00,,2013-06-08 04:53:00,